Showing default

GOES 19, 60133

Orbit data source: Space-Track

GOES 19, 60133 is a payload satellite owned by NOAA (US) in GEO that was launched on Tue, 25 Jun 2024 UTC via an FALCON HEAVY launch vehicle from the Air Force Eastern Test Range (AFETR). Payload-class satellites include a variety of spacecraft equipped with specific instruments for various scientific and technological missions. These include communications satellites like Starlink; space stations such as the ISS; scientific satellites like the Hubble; Earth observation satellites from companies like Planet Labs, Umbra, and HawkEye 360; GPS; miniature CubeSats for education and research; and military/defense satellites.

Loading next visibility...
Identifier
60133, 2024-119A
Orbit
GEO
Last TLE update
10 hours ago
Origin
Manufacturer
LMCSS
Mission
Operational Civil Weather
Bus & Motor
A2100, LEROS-1C
Mass
~5,000 kg wet, 2,925 kg dry
Launch date (UTC)
2024-06-25 (10 months ago)
Launch vehicle
FALCON HEAVY
Launch site
Air Force Eastern Test Range (AFETR)
Object type
Payload
Rocket body
Debris
Shape & HBR
Box + 1 Pan + 1 Rod, 12 m
Radar Cross Section
37.561 m²

Expand to show TLE details & history

TLE from 10 hours ago
0 GOES 19
1 60133U 24119A   25128.86730985 -.00000242  00000-0  00000-0 0  9993
2 60133   0.0108 100.8198 0000445 350.9696  12.1771  1.00269027  2910
Epoch: 2025-05-08T20:48Z
Definitive object data (Epoch: 2025-05-08T20:48:55.571Z)
Latitude
0.00293°
Longitude
-75.19852°
Altitude
35,785.027 km
Speed
3.075 km/s
True Right ascension
06h 55m 51s
True Declination
0° 00' 11"
Sunlit
Object was in daylight at TLE epoch
Visualization TLE readout
Latitude
0.0019°
Longitude
78.92319°
Altitude
35,788.72 km
Speed
3.075 km/s
Apparent Right ascension
17h 27m 05s
Apparent Declination
-6° 06' 46"
Sunlit
Object is in daylight
Visualization observer readout
Local Sidereal Time
15:12:41
Azimuth
138.092° SSE
Elevation
34.533°
Doppler factor
1
Orbital elements
Apogee altitude
35,790.315 km
Perigee altitude
35,786.562 km
Semi-major axis
42,166.576 km
Eccentricity
0.0000445
Inclination
0.0108°
RAAN
100.8198°
Arg. of periapsis
350.9696°
True anomaly
12.17818°
Mean anomaly
12.1771°
Eccentric anomaly
12.17764°
Mean motion
0.25066 °/min
BSTAR
Unknown
Orbital period
1436.19 mins
Loading historical data...
60133 neighbors
Loading maneuver chart data...
Loading SW <> Apogee altitude chart data...
Loading historical data...
Loading historical data...
Loading historical data...
Loading historical data...
Loading historical data...
Loading historical data...
Loading historical data...
Other satellites on launch #119 in the year 2024 (2024-06-25 UTC)

GOES 19 Visibility forecast

Observer location: undefined°, undefined°

Span
Click to sort rows by Start time (UTC) header in descending order
Start Az.
Max El. time (UTC)
Max El. Az.
Max El.
End time (UTC)
End Az.
1440 mins2025-05-09 07:03:45.103Z138.105° SSE2025-05-10 05:10:45.103Z138.114° SSE29.547°2025-05-10 07:03:45.103Z138.12° SSE
|